KK6MIG-13 Weather Reports


Display with metric or nautical units.
time (UTC)temp
F
wind
direction
speed
MPH
gust
MPH
rain 1hr
in
rain 24hr
in
rain mn
in
humidity
%
barometer
mb
20260505091325 53 296 4.0 11.0 0.02 0.09 0.05 1 1013.8
20260505091220 53 288 4.0 11.0 0.02 0.09 0.05 1 1013.8
20260505091119 53 275 5.0 11.0 0.02 0.09 0.05 1 1013.8
20260505091019 53 305 5.0 11.0 0.02 0.09 0.05 1 1013.8
20260505090919 53 301 5.0 11.0 0.02 0.09 0.05 1 1013.8
20260505090831 53 288 6.0 11.0 0.02 0.09 0.05 1 1013.8
20260505090827 53 277 6.0 12.0 0.02 0.09 0.05 1 1013.9
20260505090822 53 292 6.0 11.0 0.02 0.09 0.05 1 1013.8
20260505090514 53 270 7.0 12.0 0.03 0.09 0.05 1 1013.8
20260505090414 53 263 6.0 12.0 0.03 0.09 0.05 1 1013.8
20260505090322 53 288 6.0 12.0 0.03 0.09 0.05 1 1013.8
20260505090214 53 277 6.0 12.0 0.03 0.09 0.05 1 1013.8
20260505090010 53 298 5.0 12.0 0.03 0.09 0.05 1 1013.8
20260505085910 53 319 5.0 12.0 0.04 0.09 0.05 1 1013.8
20260505085807 53 277 6.0 12.0 0.04 0.09 0.05 1 1013.9
20260505085702 53 271 5.0 11.0 0.04 0.09 0.05 1 1013.8
20260505085602 53 313 5.0 11.0 0.04 0.09 0.05 1 1013.8
20260505085502 53 286 4.0 11.0 0.04 0.09 0.05 1 1013.9
20260505085402 53 277 4.0 11.0 0.04 0.09 0.05 1 1013.8
20260505085301 53 278 4.0 11.0 0.04 0.09 0.05 1 1013.8
20260505085157 53 270 4.0 11.0 0.04 0.09 0.05 1 1013.8
20260505085055 53 279 4.0 11.0 0.04 0.09 0.05 1 1013.8
20260505084956 53 280 4.0 11.0 0.04 0.09 0.05 1 1013.8
20260505084856 53 256 4.0 11.0 0.04 0.09 0.05 1 1013.7
20260505084755 53 273 4.0 8.0 0.04 0.09 0.05 1 1013.8
20260505084651 53 254 4.0 8.0 0.04 0.09 0.05 1 1013.8
20260505084550 53 274 4.0 8.0 0.04 0.09 0.05 1 1013.8
20260505084449 53 285 4.0 8.0 0.04 0.09 0.05 1 1013.8
20260505084349 53 279 4.0 8.0 0.04 0.09 0.05 1 1013.8
20260505084249 53 273 4.0 8.0 0.04 0.09 0.05 1 1013.8
20260505084144 53 287 4.0 8.0 0.04 0.09 0.05 1 1013.8
20260505084043 53 277 4.0 8.0 0.04 0.09 0.05 1 1013.9
20260505083943 53 279 4.0 8.0 0.04 0.09 0.05 1 1013.8
20260505083843 53 251 4.0 8.0 0.04 0.09 0.05 1 1013.8
20260505083743 53 267 5.0 8.0 0.04 0.09 0.05 1 1013.9
20260505083640 53 270 5.0 9.0 0.04 0.09 0.05 1 1013.9
20260505083537 53 242 5.0 9.0 0.04 0.09 0.05 1 1013.8
20260505083454 53 240 5.0 9.0 0.04 0.09 0.05 1 1013.8
20260505083450 53 273 5.0 9.0 0.04 0.09 0.05 1 1013.8
20260505083446 53 281 5.0 9.0 0.04 0.09 0.05 1 1013.8
20260505083132 53 269 4.0 9.0 0.04 0.09 0.05 1 1013.8
20260505083031 53 280 4.0 9.0 0.04 0.08 0.05 1 1013.8
20260505082931 53 286 4.0 9.0 0.04 0.08 0.04 1 1013.8
20260505082831 53 258 4.0 9.0 0.04 0.08 0.04 1 1013.8
20260505082731 53 281 3.0 9.0 0.04 0.08 0.04 1 1013.8
20260505082625 53 288 3.0 7.0 0.04 0.08 0.04 1 1013.8
20260505082525 53 275 3.0 7.0 0.04 0.08 0.04 1 1013.8
20260505082426 53 273 3.0 7.0 0.04 0.08 0.04 1 1013.8
20260505082325 53 254 3.0 7.0 0.04 0.08 0.04 1 1013.8
20260505082225 53 259 3.0 7.0 0.04 0.08 0.04 1 1013.8
20260505082140 53 274 2.0 4.0 0.03 0.07 0.04 1 1013.9
20260505082136 53 256 2.0 7.0 0.04 0.08 0.04 1 1013.8
20260505082027 53 257 3.0 4.0 0.04 0.08 0.04 1 1013.9
20260505081719 53 279 2.0 4.0 0.03 0.07 0.03 1 1013.8
20260505081626 53 233 2.0 4.0 0.03 0.07 0.03 1 1013.9
20260505081622 53 246 2.0 4.0 0.03 0.07 0.03 1 1013.9
20260505081418 53 227 2.0 4.0 0.03 0.07 0.03 1 1013.9
20260505081315 53 228 3.0 4.0 0.03 0.07 0.03 1 1013.9
20260505081213 53 240 3.0 4.0 0.03 0.07 0.03 1 1013.9
20260505081110 53 264 2.0 4.0 0.03 0.07 0.03 1 1014.0
20260505081007 53 260 2.0 4.0 0.03 0.07 0.03 1 1013.9
20260505080907 53 225 2.0 4.0 0.03 0.07 0.03 1 1013.9
20260505080807 53 225 2.0 4.0 0.03 0.07 0.03 1 1014.0
20260505080707 53 221 2.0 4.0 0.03 0.07 0.03 1 1014.1
20260505080604 53 263 2.0 4.0 0.03 0.07 0.03 1 1014.1
20260505080501 53 238 2.0 4.0 0.02 0.06 0.03 1 1014.1
20260505080401 53 238 2.0 4.0 0.02 0.06 0.02 1 1014.1
20260505080301 53 242 2.0 4.0 0.02 0.06 0.02 1 1014.1
20260505080201 53 251 1.0 4.0 0.02 0.06 0.02 1 1014.1
20260505080055 53 242 2.0 4.0 0.02 0.06 0.02 1 1014.2
20260505075955 53 253 2.0 4.0 0.02 0.06 0.02 1 1014.2
20260505075855 53 259 2.0 5.0 0.01 0.05 0.01 1 1014.2
20260505075755 53 258 2.0 7.0 0.01 0.05 0.01 1 1014.2
20260505075655 53 258 3.0 7.0 0.01 0.05 0.01 1 1014.2
20260505075552 53 258 3.0 7.0 0.01 0.05 0.01 1 1014.1
20260505075449 53 258 3.0 7.0 0.01 0.05 0.01 1 1014.1
20260505075349 53 258 3.0 7.0 0.01 0.05 0.01 1 1014.1
20260505075249 53 260 3.0 7.0 0.01 0.05 0.01 1 1014.1
20260505075149 53 263 3.0 7.0 0.01 0.05 0.01 1 1014.0
20260505075048 53 271 4.0 7.0 0.01 0.05 0.01 1 1014.0
20260505074947 53 252 4.0 7.0 0.01 0.05 0.01 1 1014.0
20260505074845 53 289 4.0 7.0 0.01 0.05 0.01 1 1014.0
20260505074745 53 284 3.0 7.0 0.01 0.05 0.01 1 1013.9
20260505074643 53 231 3.0 7.0 0.01 0.05 0.01 1 1014.0
20260505074539 53 248 3.0 7.0 0.01 0.05 0.01 1 1014.0
20260505074439 53 238 3.0 7.0 0.01 0.05 0.01 1 1014.0
20260505074340 53 271 3.0 7.0 0.01 0.05 0.01 1 1014.0
20260505074240 53 271 3.0 6.0 0.01 0.05 0.01 1 1014.1
20260505074136 53 261 3.0 6.0 0.01 0.05 0.01 1 1014.0
20260505074033 53 244 3.0 6.0 0.01 0.05 0.01 1 1014.0
20260505073931 53 242 2.0 6.0 0.01 0.05 0.01 1 1014.0
20260505073832 53 254 2.0 6.0 0.01 0.05 0.01 1 1014.1
20260505073744 53 254 2.0 6.0 0.01 0.05 0.01 1 1014.1
20260505073740 53 257 2.0 6.0 0.01 0.05 0.01 1 1014.2
20260505073736 53 241 2.0 6.0 0.01 0.05 0.01 1 1014.1
20260505073425 53 247 2.0 4.0 0.02 0.05 0.01 1 1014.2
20260505073325 53 264 2.0 4.0 0.02 0.05 0.01 1 1014.2
20260505073225 52 264 2.0 4.0 0.02 0.05 0.01 1 1014.2
20260505073125 52 261 2.0 4.0 0.02 0.05 0.01 1 1014.3
20260505073036 52 242 2.0 4.0 0.01 0.04 0.00 1 1014.3
20260505073032 52 241 2.0 4.0 0.01 0.04 0.00 1 1014.4
20260505073028 52 261 2.0 4.0 0.01 0.04 0.00 1 1014.3
20260505072719 52 246 1.0 4.0 0.01 0.04 0.00 1 1014.4
20260505072621 52 246 1.0 4.0 0.01 0.04 0.00 1 1014.4
20260505072617 52 262 1.0 4.0 0.01 0.04 0.00 1 1014.4
20260505072414 52 262 1.0 4.0 0.01 0.04 0.00 1 1014.5
20260505072313 52 284 1.0 4.0 0.01 0.04 0.00 1 1014.5
20260505072213 52 284 1.0 4.0 0.01 0.04 0.00 1 1014.4
20260505072112 52 294 1.0 2.0 0.01 0.04 0.00 1 1014.4
20260505072010 52 294 1.0 2.0 0.01 0.04 0.00 1 1014.4
20260505071907 52 294 1.0 2.0 0.01 0.04 0.00 1 1014.4
20260505071808 52 294 1.0 2.0 0.01 0.04 0.00 1 1014.4
20260505071707 52 275 1.0 3.0 0.01 0.04 0.00 1 1014.4
20260505071607 52 274 1.0 3.0 0.01 0.04 0.00 1 1014.4
20260505071502 52 274 1.0 3.0 0.01 0.04 0.00 1 1014.4
20260505071401 52 274 1.0 3.0 0.01 0.04 0.00 1 1014.4
20260505071301 52 274 1.0 3.0 0.01 0.04 0.00 1 1014.3
20260505071201 52 274 1.0 3.0 0.01 0.04 0.00 1 1014.3
20260505071101 52 274 1.0 3.0 0.01 0.04 0.00 1 1014.3
20260505070955 52 274 2.0 3.0 0.01 0.04 0.00 1 1014.3
20260505070855 52 274 2.0 4.0 0.01 0.04 0.00 1 1014.3
20260505070755 52 274 2.0 4.0 0.01 0.04 0.00 1 1014.3
20260505070712 52 274 2.0 4.0 0.01 0.04 0.00 1 1014.2
20260505070708 52 273 2.0 4.0 0.01 0.04 0.00 1 1014.2
20260505070704 52 274 2.0 4.0 0.01 0.04 0.00 1 1014.2
20260505070353 52 293 2.0 6.0 0.01 0.04 0.00 1 1014.2
20260505070253 52 293 2.0 6.0 0.01 0.04 0.00 1 1014.2
20260505070151 52 267 2.0 6.0 0.01 0.04 0.00 1 1014.2
20260505070049 52 267 2.0 7.0 0.01 0.04 0.00 1 1014.2
20260505065945 52 276 3.0 7.0 0.01 0.04 0.04 1 1014.1
20260505065845 52 288 3.0 8.0 0.01 0.04 0.04 1 1014.2
20260505065744 52 285 3.0 8.0 0.01 0.04 0.04 1 1014.1
20260505065644 52 285 3.0 8.0 0.01 0.04 0.04 1 1014.1
20260505065544 52 285 3.0 8.0 0.01 0.04 0.04 1 1014.1
20260505065439 52 279 3.0 8.0 0.01 0.04 0.04 1 1014.1
20260505065338 52 286 3.0 8.0 0.01 0.04 0.04 1 1014.0
20260505065238 52 262 3.0 8.0 0.01 0.04 0.04 1 1014.0
20260505065147 52 279 4.0 8.0 0.01 0.04 0.04 1 1014.0
20260505065142 52 286 3.0 8.0 0.01 0.04 0.04 1 1014.0
20260505064933 52 281 3.0 8.0 0.01 0.04 0.04 1 1014.0
20260505064833 52 277 3.0 7.0 0.01 0.04 0.04 1 1013.9
20260505064732 52 304 3.0 7.0 0.01 0.04 0.04 1 1014.0
20260505064632 52 282 4.0 8.0 0.02 0.04 0.04 1 1013.9
20260505064532 52 284 4.0 8.0 0.02 0.04 0.04 1 1013.9
20260505064429 52 268 4.0 8.0 0.02 0.04 0.04 1 1013.9
20260505064327 52 271 4.0 8.0 0.02 0.04 0.04 1 1013.9
20260505064226 52 264 4.0 8.0 0.02 0.04 0.04 1 1013.8
20260505064126 52 282 4.0 8.0 0.02 0.04 0.04 1 1013.8
20260505064026 52 304 4.0 8.0 0.02 0.04 0.04 1 1013.8
20260505063920 52 275 4.0 8.0 0.02 0.04 0.04 1 1013.8
20260505063820 52 292 4.0 8.0 0.02 0.04 0.04 1 1013.8
20260505063720 52 267 4.0 9.0 0.02 0.04 0.04 1 1013.8
20260505063620 52 276 4.0 9.0 0.02 0.04 0.04 1 1013.8
20260505063520 52 267 5.0 9.0 0.02 0.04 0.04 1 1013.7
20260505063416 52 279 5.0 9.0 0.01 0.03 0.03 1 1013.7
20260505063315 52 280 5.0 9.0 0.01 0.03 0.03 1 1013.7
20260505063214 52 287 5.0 9.0 0.01 0.03 0.03 1 1013.7
20260505063114 52 284 5.0 9.0 0.01 0.03 0.03 1 1013.7
20260505063013 52 277 6.0 9.0 0.01 0.03 0.03 1 1013.7
20260505062912 52 275 5.0 9.0 0.01 0.03 0.03 1 1013.7
20260505062812 52 286 5.0 9.0 0.01 0.03 0.03 1 1013.7
20260505062712 52 276 5.0 9.0 0.01 0.03 0.03 1 1013.7
20260505062611 52 277 5.0 9.0 0.01 0.03 0.03 1 1013.8
20260505062507 52 286 5.0 9.0 0.01 0.03 0.03 1 1013.7
20260505062402 52 283 5.0 9.0 0.01 0.03 0.03 1 1013.8
20260505062304 52 286 5.0 8.0 0.01 0.03 0.03 1 1013.9
20260505062202 52 284 5.0 8.0 0.01 0.03 0.03 1 1013.8
20260505062102 52 277 5.0 8.0 0.01 0.03 0.03 1 1013.9
20260505062002 52 292 5.0 8.0 0.01 0.03 0.03 1 1013.9
20260505061856 52 279 5.0 9.0 0.01 0.03 0.03 1 1013.8
20260505061756 52 317 5.0 9.0 0.01 0.03 0.03 1 1013.9
20260505061656 52 279 5.0 9.0 0.01 0.03 0.03 1 1013.9
20260505061604 52 292 5.0 9.0 0.02 0.03 0.03 1 1013.9
20260505061600 52 280 5.0 9.0 0.01 0.03 0.03 1 1013.8
20260505061352 52 282 5.0 9.0 0.02 0.03 0.03 1 1013.9
20260505061250 52 278 5.0 9.0 0.02 0.03 0.03 1 1013.9
20260505061150 52 277 4.0 9.0 0.02 0.03 0.03 1 1013.9
20260505061050 52 281 4.0 9.0 0.02 0.03 0.03 1 1013.9
20260505060951 53 282 3.0 9.0 0.02 0.03 0.03 1 1013.9
20260505060845 53 290 3.0 7.0 0.02 0.03 0.03 1 1014.0
20260505060744 53 267 3.0 7.0 0.02 0.03 0.03 1 1013.9
20260505060644 53 278 3.0 7.0 0.02 0.03 0.03 1 1014.0
20260505060545 53 281 3.0 8.0 0.02 0.03 0.03 1 1014.0
20260505060444 53 275 3.0 8.0 0.02 0.03 0.03 1 1013.9
20260505060338 53 282 3.0 8.0 0.02 0.03 0.03 1 1013.9
20260505060238 53 290 3.0 8.0 0.02 0.03 0.03 1 1014.0
20260505060138 53 290 3.0 8.0 0.02 0.03 0.03 1 1014.0
20260505060038 53 275 3.0 8.0 0.02 0.03 0.03 1 1014.0
20260505055938 53 302 4.0 8.0 0.02 0.03 0.03 1 1014.0
20260505055832 53 281 4.0 8.0 0.02 0.03 0.03 1 1014.0
20260505055732 53 263 4.0 8.0 0.02 0.03 0.03 1 1014.0
20260505055632 53 273 4.0 8.0 0.02 0.03 0.03 1 1014.0
20260505055532 53 275 4.0 8.0 0.02 0.03 0.03 1 1014.0
20260505055431 53 303 4.0 8.0 0.02 0.03 0.03 1 1014.0
20260505055326 53 286 4.0 8.0 0.02 0.03 0.03 1 1014.1
20260505055226 53 292 4.0 8.0 0.02 0.03 0.03 1 1014.1
20260505055126 53 277 4.0 8.0 0.02 0.03 0.03 1 1014.1
20260505055027 53 290 4.0 8.0 0.02 0.03 0.03 1 1014.1
20260505054926 53 270 4.0 8.0 0.02 0.03 0.03 1 1014.1
20260505054820 53 296 4.0 8.0 0.02 0.03 0.03 1 1014.1
20260505054721 53 283 4.0 8.0 0.02 0.03 0.03 1 1014.1
20260505054620 53 307 4.0 8.0 0.01 0.02 0.02 1 1014.1
20260505054520 53 275 4.0 8.0 0.01 0.02 0.02 1 1014.0
20260505054420 53 304 4.0 8.0 0.01 0.02 0.02 1 1014.1
20260505054319 53 275 4.0 8.0 0.01 0.02 0.02 1 1014.1
20260505054219 53 284 5.0 9.0 0.01 0.02 0.02 1 1014.0
20260505054119 53 277 5.0 10.0 0.01 0.02 0.02 1 1014.0
20260505054023 53 294 5.0 10.0 0.01 0.02 0.02 1 1014.0
20260505054019 53 284 5.0 10.0 0.01 0.02 0.02 1 1014.0
20260505053807 53 312 4.0 10.0 0.01 0.02 0.02 1 1014.0
20260505053709 53 265 4.0 10.0 0.01 0.02 0.02 1 1013.9
20260505053609 53 275 5.0 10.0 0.01 0.02 0.02 1 1014.0
20260505053508 53 296 5.0 10.0 0.02 0.02 0.02 1 1014.0
20260505053408 53 288 5.0 11.0 0.02 0.02 0.02 1 1013.9
20260505053303 53 281 5.0 11.0 0.02 0.02 0.02 1 1013.9
20260505053211 53 285 4.0 11.0 0.02 0.02 0.02 1 1013.9
20260505053207 53 296 4.0 11.0 0.02 0.02 0.02 1 1013.9
20260505053002 53 288 5.0 11.0 0.02 0.02 0.02 1 1013.9
20260505052902 53 279 5.0 11.0 0.02 0.02 0.02 1 1013.9
20260505052759 53 265 5.0 11.0 0.02 0.02 0.02 1 1013.9
20260505052656 53 277 5.0 11.0 0.02 0.02 0.02 1 1013.9
20260505052556 53 288 5.0 11.0 0.02 0.02 0.02 1 1013.9
20260505052456 53 292 6.0 11.0 0.02 0.02 0.02 1 1013.8
20260505052356 53 259 5.0 9.0 0.02 0.02 0.02 1 1013.8
20260505052250 53 278 6.0 9.0 0.02 0.02 0.02 1 1013.9
20260505052150 53 285 6.0 9.0 0.02 0.02 0.02 1 1013.9
20260505052050 53 284 6.0 9.0 0.02 0.02 0.02 1 1013.9
20260505051959 53 267 6.0 10.0 0.02 0.02 0.02 1 1013.9
20260505051954 53 261 6.0 10.0 0.02 0.02 0.02 1 1013.9
20260505051756 53 321 6.0 10.0 0.02 0.02 0.02 1 1013.9
20260505051648 53 297 6.0 10.0 0.02 0.02 0.02 1 1013.9
20260505051444 53 271 6.0 10.0 0.01 0.01 0.02 1 1014.0
20260505051344 53 298 6.0 12.0 0.01 0.01 0.01 1 1014.0
20260505051238 53 294 6.0 12.0 0.01 0.01 0.01 1 1014.0
20260505051138 53 269 6.0 12.0 0.01 0.01 0.01 1 1014.0
20260505051038 53 275 6.0 12.0 0.01 0.01 0.01 1 1014.0
20260505050938 53 308 6.0 12.0 0.01 0.01 0.01 1 1014.0
20260505050838 53 276 6.0 12.0 0.01 0.01 0.01 1 1014.0
20260505050741 53 284 6.0 12.0 0.01 0.01 0.01 1 1014.1
20260505050737 53 279 6.0 12.0 0.01 0.01 0.01 1 1014.1
20260505050532 53 295 6.0 12.0 0.01 0.01 0.01 1 1014.1
20260505050432 53 263 6.0 12.0 0.01 0.01 0.01 1 1014.2
20260505050332 53 283 6.0 10.0 0.01 0.01 0.01 1 1014.2
20260505050226 53 278 6.0 10.0 0.01 0.01 0.01 1 1014.3
20260505050127 53 285 6.0 12.0 0.01 0.01 0.01 1 1014.3
20260505041750 54 288 6.0 13.0 0.00 0.00 0.00 1 1014.4
20260505041650 54 261 6.0 13.0 0.00 0.00 0.00 1 1014.4
20260505041550 54 274 7.0 13.0 0.00 0.00 0.00 1 1014.3
20260505041444 54 278 7.0 13.0 0.00 0.00 0.00 1 1014.3
20260505041259 54 303 7.0 12.0 0.00 0.00 0.00 1 1014.2
20260505041255 54 270 7.0 13.0 0.00 0.00 0.00 1 1014.2
20260505041146 54 276 7.0 12.0 0.00 0.00 0.00 1 1014.2
20260505040838 54 278 7.0 12.0 0.00 0.00 0.00 1 1014.1
20260505040738 54 281 7.0 12.0 0.00 0.00 0.00 1 1014.1
20260505040638 54 294 7.0 12.0 0.00 0.00 0.00 1 1014.0
20260505040538 54 306 6.0 12.0 0.00 0.00 0.00 1 1014.0
20260505040438 54 279 6.0 12.0 0.00 0.00 0.00 1 1014.0
20260505040338 54 278 6.0 12.0 0.00 0.00 0.00 1 1013.9
20260505040238 54 284 6.0 12.0 0.00 0.00 0.00 1 1013.9
20260505040138 54 267 6.0 12.0 0.00 0.00 0.00 1 1013.8
20260505040038 54 279 6.0 12.0 0.00 0.00 0.00 1 1013.8
20260505035938 54 311 6.0 12.0 0.00 0.00 0.00 1 1013.8
20260505035837 54 300 6.0 12.0 0.00 0.00 0.00 1 1013.8
20260505035738 54 294 6.0 12.0 0.00 0.00 0.00 1 1013.8
20260505035638 54 285 6.0 15.0 0.00 0.00 0.00 1 1013.8
20260505035538 54 279 7.0 15.0 0.00 0.00 0.00 1 1013.7
20260505035438 54 291 7.0 15.0 0.00 0.00 0.00 1 1013.7
20260505035338 55 275 7.0 15.0 0.00 0.00 0.00 1 1013.7
20260505035236 55 319 7.0 15.0 0.00 0.00 0.00 1 1013.6
20260505035136 55 298 8.0 15.0 0.00 0.00 0.00 1 1013.7
20260505035036 55 282 8.0 15.0 0.00 0.00 0.00 1 1013.6
20260505034944 55 287 9.0 15.0 0.00 0.00 0.00 1 1013.6
20260505034940 55 277 9.0 15.0 0.00 0.00 0.00 1 1013.6
20260505034735 55 275 9.0 15.0 0.00 0.00 0.00 1 1013.6
20260505034635 55 285 8.0 14.0 0.00 0.00 0.00 1 1013.6
20260505034536 55 281 8.0 14.0 0.00 0.00 0.00 1 1013.5
20260505034436 55 282 8.0 14.0 0.00 0.00 0.00 1 1013.5
20260505034336 55 271 8.0 14.0 0.00 0.00 0.00 1 1013.5
20260505034236 55 291 8.0 14.0 0.00 0.00 0.00 1 1013.5
20260505034135 55 336 8.0 14.0 0.00 0.00 0.00 1 1013.6
20260505034042 55 279 7.0 14.0 0.00 0.00 0.00 1 1013.5
20260505034037 55 288 8.0 14.0 0.00 0.00 0.00 1 1013.5
20260505033834 55 279 7.0 14.0 0.00 0.00 0.00 1 1013.6
20260505033734 55 276 8.0 14.0 0.00 0.00 0.00 1 1013.5
20260505033634 55 281 8.0 14.0 0.00 0.00 0.00 1 1013.6
20260505033534 55 288 8.0 14.0 0.00 0.00 0.00 1 1013.5
20260505033443 55 277 8.0 14.0 0.00 0.00 0.00 1 1013.5
20260505033438 55 271 8.0 14.0 0.00 0.00 0.00 1 1013.6
20260505033234 55 294 8.0 14.0 0.00 0.00 0.00 1 1013.5
20260505033134 55 285 8.0 14.0 0.00 0.00 0.00 1 1013.5
20260505033034 55 291 8.0 14.0 0.00 0.00 0.00 1 1013.5
20260505032933 55 281 8.0 14.0 0.00 0.00 0.00 1 1013.5
20260505032834 55 269 8.0 14.0 0.00 0.00 0.00 1 1013.5
20260505032734 55 279 8.0 14.0 0.00 0.00 0.00 1 1013.5
20260505032634 55 279 8.0 14.0 0.00 0.00 0.00 1 1013.5
20260505032542 55 288 8.0 14.0 0.00 0.00 0.00 1 1013.4
20260505032538 55 277 8.0 14.0 0.00 0.00 0.00 1 1013.5
20260505032334 55 281 8.0 12.0 0.00 0.00 0.00 1 1013.4
20260505032234 55 277 8.0 12.0 0.00 0.00 0.00 1 1013.4
20260505032130 55 263 8.0 12.0 0.00 0.00 0.00 1 1013.3
20260505032030 55 287 7.0 12.0 0.00 0.00 0.00 1 1013.4
20260505031930 55 279 8.0 12.0 0.00 0.00 0.00 1 1013.3
20260505031830 55 282 8.0 14.0 0.00 0.00 0.00 1 1013.3
20260505031729 55 279 8.0 14.0 0.00 0.00 0.00 1 1013.3
20260505031629 55 292 9.0 14.0 0.00 0.00 0.00 1 1013.3
20260505031530 55 277 9.0 15.0 0.00 0.00 0.00 1 1013.3
20260505031439 55 273 9.0 15.0 0.00 0.00 0.00 1 1013.3
20260505031435 55 312 9.0 15.0 0.00 0.00 0.00 1 1013.4
20260505031230 55 276 9.0 15.0 0.00 0.00 0.00 2 1013.4
20260505031130 55 285 10.0 15.0 0.00 0.00 0.00 2 1013.3
20260505031030 55 309 10.0 15.0 0.00 0.00 0.00 2 1013.3
20260505030938 55 306 9.0 15.0 0.00 0.00 0.00 3 1013.3
20260505030934 55 275 9.0 15.0 0.00 0.00 0.00 3 1013.3
20260505030731 55 315 9.0 15.0 0.00 0.00 0.00 2 1013.3
20260505030642 55 277 9.0 15.0 0.00 0.00 0.00 1 1013.3
20260505030535 55 293 9.0 16.0 0.00 0.00 0.00 1 1013.3
20260505030330 55 271 9.0 16.0 0.00 0.00 0.00 1 1013.3
20260505030224 55 275 8.0 16.0 0.00 0.00 0.00 1 1013.3
20260505030124 55 257 8.0 16.0 0.00 0.00 0.00 1 1013.3
20260505030032 55 276 8.0 16.0 0.00 0.00 0.00 1 1013.3
20260505030028 55 275 8.0 16.0 0.00 0.00 0.00 1 1013.3
20260505025824 55 286 8.0 16.0 0.00 0.00 0.00 1 1013.3
20260505025724 55 299 8.0 16.0 0.00 0.00 0.00 1 1013.3
20260505025624 55 258 8.0 16.0 0.00 0.00 0.00 1 1013.3
20260505025524 55 306 8.0 14.0 0.00 0.00 0.00 1 1013.3
20260505025424 55 284 8.0 14.0 0.00 0.00 0.00 1 1013.3
20260505025324 56 277 8.0 15.0 0.00 0.00 0.00 1 1013.4
20260505025224 56 266 8.0 15.0 0.00 0.00 0.00 1 1013.4
20260505025124 56 281 8.0 15.0 0.00 0.00 0.00 1 1013.3
20260505025020 56 275 8.0 15.0 0.00 0.00 0.00 1 1013.3
20260505024920 56 274 8.0 15.0 0.00 0.00 0.00 1 1013.4
20260505024828 56 292 8.0 15.0 0.00 0.00 0.00 1 1013.3
20260505024824 56 279 8.0 15.0 0.00 0.00 0.00 1 1013.3
20260505024633 56 284 8.0 15.0 0.00 0.00 0.00 1 1013.4
20260505024524 56 292 8.0 15.0 0.00 0.00 0.00 1 1013.4
20260505024320 56 275 7.0 13.0 0.00 0.00 0.00 1 1013.4
20260505024220 56 281 7.0 13.0 0.00 0.00 0.00 1 1013.4
20260505024128 56 279 7.0 13.0 0.00 0.00 0.00 1 1013.4
20260505024124 56 291 7.0 13.0 0.00 0.00 0.00 1 1013.4
20260505023919 56 279 7.0 13.0 0.00 0.00 0.00 1 1013.4
20260505023819 56 318 8.0 13.0 0.00 0.00 0.00 1 1013.4
20260505023719 56 290 8.0 13.0 0.00 0.00 0.00 1 1013.4
20260505023619 56 273 8.0 13.0 0.00 0.00 0.00 1 1013.4
20260505023520 56 284 8.0 13.0 0.00 0.00 0.00 1 1013.4
20260505023420 56 296 8.0 13.0 0.00 0.00 0.00 1 1013.4
20260505023320 56 274 8.0 13.0 0.00 0.00 0.00 1 1013.3
20260505023220 56 291 9.0 13.0 0.00 0.00 0.00 1 1013.4
20260505023116 56 265 9.0 13.0 0.00 0.00 0.00 1 1013.3
20260505023016 56 280 9.0 13.0 0.00 0.00 0.00 1 1013.3
20260505022916 56 282 9.0 13.0 0.00 0.00 0.00 1 1013.3
20260505022816 56 311 8.0 13.0 0.00 0.00 0.00 1 1013.3
20260505022715 56 260 9.0 13.0 0.00 0.00 0.00 1 1013.3
20260505022624 56 277 9.0 13.0 0.00 0.00 0.00 1 1013.3
20260505022620 56 281 9.0 13.0 0.00 0.00 0.00 1 1013.3
20260505022424 56 298 8.0 13.0 0.00 0.00 0.00 1 1013.3
20260505022420 56 278 9.0 13.0 0.00 0.00 0.00 1 1013.3
20260505022215 56 273 8.0 13.0 0.00 0.00 0.00 1 1013.3
20260505022116 56 300 8.0 13.0 0.00 0.00 0.00 1 1013.3
20260505022016 56 286 7.0 13.0 0.00 0.00 0.00 1 1013.2
20260505021916 56 238 7.0 13.0 0.00 0.00 0.00 1 1013.2
20260505021816 56 263 7.0 13.0 0.00 0.00 0.00 1 1013.2
20260505021715 56 303 7.0 13.0 0.00 0.00 0.00 1 1013.2
20260505021615 56 276 7.0 13.0 0.00 0.00 0.00 1 1013.2
20260505021515 56 272 7.0 13.0 0.00 0.00 0.00 1 1013.2
20260505021416 56 280 7.0 13.0 0.00 0.00 0.00 1 1013.2
20260505021316 56 265 6.0 12.0 0.00 0.00 0.00 1 1013.1
20260505021209 56 314 6.0 12.0 0.00 0.00 0.00 1 1013.1
20260505021109 56 327 7.0 12.0 0.00 0.00 0.00 1 1013.2
20260505021010 56 222 7.0 12.0 0.00 0.00 0.00 1 1013.2
20260505020919 56 284 7.0 13.0 0.00 0.00 0.00 1 1013.2
20260505020914 56 269 7.0 13.0 0.00 0.00 0.00 1 1013.2
20260505020710 56 282 8.0 15.0 0.00 0.00 0.00 1 1013.3
20260505020610 56 265 8.0 15.0 0.00 0.00 0.00 1 1013.3
20260505020509 56 265 8.0 15.0 0.00 0.00 0.00 1 1013.2
20260505020409 56 318 9.0 15.0 0.00 0.00 0.00 1 1013.3
20260505020309 56 279 9.0 16.0 0.00 0.00 0.00 1 1013.3
20260505020209 56 277 9.0 16.0 0.00 0.00 0.00 1 1013.4
20260505020109 56 306 9.0 16.0 0.00 0.00 0.00 1 1013.4
20260505020006 56 296 10.0 16.0 0.00 0.00 0.00 1 1013.4
20260505015905 56 300 10.0 16.0 0.00 0.00 0.00 1 1013.3
20260505015806 56 283 10.0 16.0 0.00 0.00 0.00 1 1013.3
20260505015706 56 275 10.0 16.0 0.00 0.00 0.00 1 1013.4
20260505015606 56 281 10.0 16.0 0.00 0.00 0.00 1 1013.4
20260505015506 56 264 10.0 16.0 0.00 0.00 0.00 1 1013.4
20260505015405 56 273 10.0 16.0 0.00 0.00 0.00 1 1013.4
20260505015303 56 292 10.0 16.0 0.00 0.00 0.00 1 1013.4
20260505015204 56 263 10.0 16.0 0.00 0.00 0.00 1 1013.4
20260505015104 56 267 10.0 16.0 0.00 0.00 0.00 1 1013.5
20260505015004 56 258 10.0 16.0 0.00 0.00 0.00 1 1013.5
20260505014904 56 288 10.0 16.0 0.00 0.00 0.00 1 1013.5
20260505014803 56 298 9.0 16.0 0.00 0.00 0.00 1 1013.6
20260505014703 57 310 9.0 16.0 0.00 0.00 0.00 1 1013.5
20260505014603 57 287 9.0 16.0 0.00 0.00 0.00 1 1013.6
20260505014503 57 286 9.0 16.0 0.00 0.00 0.00 1 1013.6
20260505014403 57 267 9.0 16.0 0.00 0.00 0.00 1 1013.6
20260505014258 57 292 9.0 15.0 0.00 0.00 0.00 1 1013.6
20260505014158 57 270 9.0 15.0 0.00 0.00 0.00 1 1013.6
20260505014109 57 282 8.0 15.0 0.00 0.00 0.00 1 1013.6
20260505014001 57 280 8.0 15.0 0.00 0.00 0.00 1 1013.6
20260505013752 57 279 9.0 15.0 0.00 0.00 0.00 1 1013.6
20260505013652 57 273 9.0 15.0 0.00 0.00 0.00 1 1013.6
20260505013550 57 274 8.0 15.0 0.00 0.00 0.00 1 1013.6
20260505013449 57 263 9.0 15.0 0.00 0.00 0.00 1 1013.6
20260505013349 57 286 9.0 15.0 0.00 0.00 0.00 1 1013.5
20260505013246 57 321 9.0 14.0 0.00 0.00 0.00 1 1013.5
20260505013208 57 282 8.0 14.0 0.00 0.00 0.00 1 1013.5
20260505013204 57 269 8.0 14.0 0.00 0.00 0.00 1 1013.5
20260505013159 57 311 7.0 14.0 0.00 0.00 0.00 1 1013.5
20260505013156 57 273 9.0 14.0 0.00 0.00 0.00 1 1013.5
20260505012746 57 343 7.0 12.0 0.00 0.00 0.00 1 1013.5
20260505012741 57 283 7.0 14.0 0.00 0.00 0.00 1 1013.5
20260505012537 57 271 7.0 14.0 0.00 0.00 0.00 1 1013.5
20260505012449 57 305 7.0 14.0 0.00 0.00 0.00 1 1013.5
20260505012445 57 263 7.0 14.0 0.00 0.00 0.00 1 1013.5
20260505012336 57 284 7.0 14.0 0.00 0.00 0.00 1 1013.5
20260505012145 57 304 7.0 14.0 0.00 0.00 0.00 1 1013.6
20260505012036 57 263 7.0 14.0 0.00 0.00 0.00 1 1013.6
20260505011831 57 288 8.0 14.0 0.00 0.00 0.00 1 1013.6
20260505011726 57 259 8.0 14.0 0.00 0.00 0.00 1 1013.6
20260505011626 57 282 7.0 12.0 0.00 0.00 0.00 1 1013.6
20260505011526 57 260 8.0 12.0 0.00 0.00 0.00 1 1013.6
20260505011426 57 283 8.0 12.0 0.00 0.00 0.00 1 1013.6
20260505011328 57 269 7.0 12.0 0.00 0.00 0.00 1 1013.6
20260505011324 57 279 7.0 12.0 0.00 0.00 0.00 1 1013.7
20260505011120 57 245 7.0 12.0 0.00 0.00 0.00 1 1013.7
20260505011020 57 271 7.0 12.0 0.00 0.00 0.00 1 1013.7
20260505010919 57 244 7.0 13.0 0.00 0.00 0.00 1 1013.7
20260505010819 57 271 7.0 13.0 0.00 0.00 0.00 1 1013.7
20260505010714 57 246 7.0 13.0 0.00 0.00 0.00 1 1013.7
20260505010614 57 273 7.0 13.0 0.00 0.00 0.00 1 1013.7
20260505010513 57 283 8.0 13.0 0.00 0.00 0.00 1 1013.6
20260505010414 57 256 8.0 13.0 0.00 0.00 0.00 1 1013.7
20260505010313 57 277 8.0 13.0 0.00 0.00 0.00 1 1013.7
20260505010207 57 291 8.0 13.0 0.00 0.00 0.00 1 1013.7
20260505010107 57 252 8.0 13.0 0.00 0.00 0.00 1 1013.7
20260505010020 57 254 8.0 12.0 0.00 0.00 0.00 1 1013.7
20260505005911 57 298 8.0 12.0 0.00 0.00 0.00 1 1013.7
20260505005702 57 295 8.0 13.0 0.00 0.00 0.00 1 1013.8
20260505005601 57 256 8.0 13.0 0.00 0.00 0.00 1 1013.8
20260505005501 57 272 8.0 13.0 0.00 0.00 0.00 1 1013.8
20260505005402 57 295 8.0 13.0 0.00 0.00 0.00 1 1013.8
20260505005301 57 292 8.0 13.0 0.00 0.00 0.00 1 1013.8
20260505005155 57 254 8.0 13.0 0.00 0.00 0.00 1 1013.8
20260505005055 57 250 8.0 13.0 0.00 0.00 0.00 1 1013.8
20260505004956 57 284 8.0 13.0 0.00 0.00 0.00 1 1013.8
20260505004903 57 296 8.0 13.0 0.00 0.00 0.00 1 1013.8
20260505004859 57 255 9.0 13.0 0.00 0.00 0.00 1 1013.8
20260505004648 57 269 8.0 13.0 0.00 0.00 0.00 1 1013.8
20260505004547 57 278 7.0 13.0 0.00 0.00 0.00 1 1013.8
20260505004448 57 286 7.0 13.0 0.00 0.00 0.00 1 1013.8
20260505004348 57 275 8.0 13.0 0.00 0.00 0.00 1 1013.8
20260505004247 57 279 8.0 13.0 0.00 0.00 0.00 1 1013.8
20260505004142 57 250 8.0 15.0 0.00 0.00 0.00 1 1013.9
20260505004042 57 279 7.0 15.0 0.00 0.00 0.00 1 1013.9
20260505003958 57 267 7.0 15.0 0.00 0.00 0.00 1 1014.0
20260505003953 57 226 7.0 15.0 0.00 0.00 0.00 1 1014.0
20260505003949 57 273 7.0 15.0 0.00 0.00 0.00 1 1013.9
20260505003646 57 265 8.0 15.0 0.00 0.00 0.00 1 1014.0
20260505003642 57 311 8.0 15.0 0.00 0.00 0.00 1 1013.9
20260505003437 57 221 8.0 15.0 0.00 0.00 0.00 1 1014.0
20260505003337 57 225 7.0 15.0 0.00 0.00 0.00 1 1013.9
20260505003237 57 223 7.0 15.0 0.00 0.00 0.00 1 1013.9
20260505003137 57 224 7.0 13.0 0.00 0.00 0.00 1 1013.9
20260505003051 57 257 7.0 13.0 0.00 0.00 0.00 1 1013.9
20260505002942 58 265 7.0 13.0 0.00 0.00 0.00 1 1014.0
20260505002737 57 280 7.0 13.0 0.00 0.00 0.00 1 1013.9
20260505002636 57 226 7.0 13.0 0.00 0.00 0.00 1 1013.9
20260505002536 58 245 6.0 13.0 0.00 0.00 0.00 1 1014.0
20260505002435 58 238 7.0 13.0 0.00 0.00 0.00 1 1013.9
20260505002335 58 251 7.0 13.0 0.00 0.00 0.00 1 1013.9
20260505002235 57 207 7.0 13.0 0.00 0.00 0.00 1 1014.0
20260505002135 57 246 8.0 13.0 0.00 0.00 0.00 1 1013.9
20260505002035 57 248 8.0 13.0 0.00 0.00 0.00 1 1013.9
20260505001929 57 216 8.0 13.0 0.00 0.00 0.00 1 1014.0
20260505001829 57 246 8.0 12.0 0.00 0.00 0.00 1 1014.0
20260505001729 57 258 8.0 12.0 0.00 0.00 0.00 1 1014.0
20260505001629 57 240 8.0 12.0 0.00 0.00 0.00 1 1014.1
20260505001529 57 255 8.0 12.0 0.00 0.00 0.00 1 1014.0
20260505001423 57 252 8.0 12.0 0.00 0.00 0.00 1 1014.1
20260505001323 57 227 8.0 12.0 0.00 0.00 0.00 1 1014.0
20260505001223 58 246 8.0 12.0 0.00 0.00 0.00 1 1014.0
20260505001123 58 247 8.0 14.0 0.00 0.00 0.00 1 1014.0
20260505001023 58 252 8.0 14.0 0.00 0.00 0.00 1 1014.0
20260505000917 58 244 8.0 14.0 0.00 0.00 0.00 1 1014.1
20260505000818 58 262 9.0 14.0 0.00 0.00 0.00 1 1014.1
20260505000718 58 248 8.0 16.0 0.00 0.00 0.00 1 1014.0
20260505000617 58 251 9.0 16.0 0.00 0.00 0.00 1 1014.0
20260505000517 58 239 9.0 16.0 0.00 0.00 0.00 1 1014.0
20260505000413 58 257 9.0 16.0 0.00 0.00 0.00 1 1014.0
20260505000311 58 273 9.0 16.0 0.00 0.00 0.00 1 1013.9
20260505000212 58 240 9.0 16.0 0.00 0.00 0.00 1 1013.9
20260505000111 58 249 9.0 16.0 0.00 0.00 0.00 1 1013.9
20260505000011 58 265 9.0 16.0 0.00 0.00 0.00 1 1014.0
20260504235905 58 232 8.0 16.0 0.00 0.00 0.00 1 1014.0
20260504235806 58 242 8.0 14.0 0.00 0.00 0.00 1 1013.9
20260504235705 58 213 8.0 14.0 0.00 0.00 0.00 1 1014.0
20260504235605 58 228 8.0 14.0 0.00 0.00 0.00 1 1014.0
20260504235505 58 229 8.0 14.0 0.00 0.00 0.00 1 1014.0
20260504235359 58 237 8.0 14.0 0.00 0.00 0.00 1 1014.0
20260504235307 58 291 8.0 14.0 0.00 0.00 0.00 1 1013.9
20260504235304 58 294 8.0 14.0 0.00 0.00 0.00 1 1014.0
20260504235107 58 290 9.0 16.0 0.00 0.00 0.00 1 1013.9
20260504235103 58 232 9.0 14.0 0.00 0.00 0.00 1 1013.9
20260504234853 58 254 9.0 16.0 0.00 0.00 0.00 1 1013.9
20260504234753 58 262 9.0 16.0 0.00 0.00 0.00 1 1013.9
20260504234653 58 251 9.0 16.0 0.00 0.00 0.00 1 1013.9
20260504234554 58 265 9.0 16.0 0.00 0.00 0.00 1 1013.9
20260504234453 58 228 8.0 16.0 0.00 0.00 0.00 1 1013.9
20260504234347 58 242 9.0 16.0 0.00 0.00 0.00 1 1013.9
20260504234247 58 204 8.0 16.0 0.00 0.00 0.00 1 1014.0
20260504234147 58 272 8.0 16.0 0.00 0.00 0.00 1 1013.9
20260504234047 58 284 8.0 16.0 0.00 0.00 0.00 1 1013.9
20260504233947 58 278 9.0 14.0 0.00 0.00 0.00 1 1013.9
20260504233841 58 263 9.0 16.0 0.00 0.00 0.00 1 1013.8
20260504233750 58 229 9.0 16.0 0.00 0.00 0.00 1 1013.8
20260504233745 58 239 9.0 16.0 0.00 0.00 0.00 1 1013.8
20260504233541 58 224 9.0 16.0 0.00 0.00 0.00 1 1013.8
20260504233441 58 241 9.0 16.0 0.00 0.00 0.00 1 1013.8
20260504233335 57 277 9.0 16.0 0.00 0.00 0.00 1 1013.8
20260504233244 58 252 8.0 16.0 0.00 0.00 0.00 1 1013.9
20260504233239 57 282 9.0 16.0 0.00 0.00 0.00 1 1013.8
20260504233035 58 226 8.0 16.0 0.00 0.00 0.00 1 1013.9
20260504232935 58 233 8.0 16.0 0.00 0.00 0.00 1 1013.9
20260504232830 58 224 8.0 13.0 0.00 0.00 0.00 1 1013.8
20260504232746 58 261 8.0 13.0 0.00 0.00 0.00 1 1013.9
20260504232742 58 243 8.0 13.0 0.00 0.00 0.00 1 1013.8
20260504232738 58 233 8.0 13.0 0.00 0.00 0.00 1 1013.8
20260504232432 58 234 8.0 13.0 0.00 0.00 0.00 1 1013.9
20260504232427 58 250 8.0 15.0 0.00 0.00 0.00 1 1013.9
20260504232224 58 241 8.0 15.0 0.00 0.00 0.00 1 1013.9
20260504232124 58 290 9.0 15.0 0.00 0.00 0.00 1 1013.9
20260504232024 58 276 9.0 15.0 0.00 0.00 0.00 1 1013.8
20260504231923 57 219 9.0 15.0 0.00 0.00 0.00 1 1013.9
20260504231818 57 253 9.0 15.0 0.00 0.00 0.00 1 1013.9
20260504231718 57 267 9.0 15.0 0.00 0.00 0.00 1 1013.9
20260504231617 57 244 9.0 15.0 0.00 0.00 0.00 1 1013.9
20260504231526 57 247 9.0 15.0 0.00 0.00 0.00 1 1013.9
20260504231522 57 237 9.0 15.0 0.00 0.00 0.00 1 1013.9
20260504231323 58 252 10.0 17.0 0.00 0.00 0.00 1 1013.9
20260504231215 58 240 10.0 17.0 0.00 0.00 0.00 1 1013.9
20260504231012 58 281 10.0 17.0 0.00 0.00 0.00 1 1013.9
20260504230910 58 216 9.0 17.0 0.00 0.00 0.00 1 1013.9
20260504230807 58 231 9.0 17.0 0.00 0.00 0.00 1 1013.9
20260504230706 58 253 9.0 17.0 0.00 0.00 0.00 1 1013.9
20260504230606 58 223 8.0 17.0 0.00 0.00 0.00 1 1013.9
20260504230505 58 0 8.0 17.0 0.00 0.00 0.00 1 1013.9
20260504230405 58 231 8.0 17.0 0.00 0.00 0.00 1 1013.9
20260504230300 58 232 8.0 16.0 0.00 0.00 0.00 1 1013.9
20260504230159 58 209 8.0 14.0 0.00 0.00 0.00 1 1013.9
20260504230059 58 249 8.0 14.0 0.00 0.00 0.00 1 1013.9
20260504225959 58 231 8.0 14.0 0.00 0.00 0.00 1 1013.9
20260504225859 58 277 8.0 14.0 0.00 0.00 0.00 1 1013.9
20260504225753 58 281 8.0 14.0 0.00 0.00 0.00 1 1013.9
20260504225653 58 249 8.0 14.0 0.00 0.00 0.00 1 1014.0
20260504225601 58 263 9.0 12.0 0.00 0.00 0.00 1 1014.0
20260504225557 58 238 9.0 14.0 0.00 0.00 0.00 1 1014.0
20260504225353 58 242 9.0 12.0 0.00 0.00 0.00 1 1014.0
20260504225247 58 237 9.0 12.0 0.00 0.00 0.00 1 1014.0
20260504225147 58 249 8.0 12.0 0.00 0.00 0.00 1 1014.0
20260504225047 58 259 8.0 12.0 0.00 0.00 0.00 1 1014.0
20260504224947 58 245 8.0 12.0 0.00 0.00 0.00 1 1014.1
20260504224847 58 315 9.0 15.0 0.00 0.00 0.00 1 1014.1
20260504224741 58 236 9.0 15.0 0.00 0.00 0.00 1 1014.1
20260504224641 58 240 9.0 15.0 0.00 0.00 0.00 1 1014.0
20260504224541 58 229 8.0 15.0 0.00 0.00 0.00 1 1014.1
20260504224441 58 246 9.0 15.0 0.00 0.00 0.00 1 1014.1
20260504224341 58 222 9.0 15.0 0.00 0.00 0.00 1 1014.1
20260504224235 58 255 8.0 15.0 0.00 0.00 0.00 1 1014.1
20260504224135 58 244 8.0 15.0 0.00 0.00 0.00 1 1014.1
20260504224035 58 244 8.0 15.0 0.00 0.00 0.00 1 1014.1
20260504223936 58 226 8.0 15.0 0.00 0.00 0.00 1 1014.1
20260504223834 58 241 8.0 14.0 0.00 0.00 0.00 1 1014.1
20260504223729 58 213 8.0 14.0 0.00 0.00 0.00 1 1014.1
20260504223629 58 233 8.0 14.0 0.00 0.00 0.00 1 1014.0
20260504223530 58 246 8.0 14.0 0.00 0.00 0.00 1 1014.0
20260504223429 58 229 8.0 14.0 0.00 0.00 0.00 1 1014.0
20260504223328 58 263 8.0 14.0 0.00 0.00 0.00 1 1014.0
20260504223223 58 248 9.0 14.0 0.00 0.00 0.00 1 1014.0
20260504223124 58 271 8.0 14.0 0.00 0.00 0.00 1 1014.1
20260504223023 58 262 8.0 14.0 0.00 0.00 0.00 1 1014.1
20260504222923 58 261 8.0 14.0 0.00 0.00 0.00 1 1014.1
20260504222823 58 248 8.0 14.0 0.00 0.00 0.00 1 1014.1
20260504222717 58 225 9.0 14.0 0.00 0.00 0.00 1 1014.1
20260504222638 59 286 9.0 14.0 0.00 0.00 0.00 1 1014.1
20260504222634 58 228 9.0 14.0 0.00 0.00 0.00 1 1014.1
20260504222421 59 249 9.0 14.0 0.00 0.00 0.00 1 1014.1
20260504222211 59 278 8.0 14.0 0.00 0.00 0.00 1 1014.0
20260504222111 59 249 8.0 14.0 0.00 0.00 0.00 1 1014.0
20260504222011 59 220 8.0 14.0 0.00 0.00 0.00 1 1014.0
20260504221911 59 218 9.0 14.0 0.00 0.00 0.00 1 1014.0
20260504221812 59 248 9.0 14.0 0.00 0.00 0.00 1 1014.0
20260504221714 59 273 9.0 14.0 0.00 0.00 0.00 1 1014.1
20260504221709 59 240 9.0 14.0 0.00 0.00 0.00 1 1014.1
20260504221505 59 238 8.0 14.0 0.00 0.00 0.00 1 1014.1
20260504221405 59 252 8.0 14.0 0.00 0.00 0.00 1 1014.2
20260504221305 59 264 8.0 13.0 0.00 0.00 0.00 1 1014.2
20260504221159 59 276 8.0 13.0 0.00 0.00 0.00 1 1014.2
20260504221059 59 256 8.0 14.0 0.00 0.00 0.00 1 1014.2
20260504221025 59 253 8.0 14.0 0.00 0.00 0.00 1 1014.2
20260504221021 59 254 8.0 14.0 0.00 0.00 0.00 1 1014.2
20260504221016 59 274 8.0 14.0 0.00 0.00 0.00 1 1014.2
20260504220908 59 229 8.0 14.0 0.00 0.00 0.00 1 1014.2
20260504220455 59 242 8.0 14.0 0.00 0.00 0.00 1 1014.2
20260504220356 59 229 8.0 14.0 0.00 0.00 0.00 1 1014.2
20260504220252 58 269 9.0 14.0 0.00 0.00 0.00 1 1014.2
20260504220208 58 260 9.0 13.0 0.00 0.00 0.00 1 1014.2
20260504220100 58 277 9.0 14.0 0.00 0.00 0.00 1 1014.2
20260504220056 58 243 9.0 14.0 0.00 0.00 0.00 1 1014.2
20260504215747 58 217 9.0 14.0 0.00 0.00 0.00 1 1014.2
20260504215642 58 264 8.0 14.0 0.00 0.00 0.00 1 1014.3
20260504215541 58 254 8.0 14.0 0.00 0.00 0.00 1 1014.2
20260504215441 58 257 8.0 14.0 0.00 0.00 0.00 1 1014.2
20260504215341 58 236 8.0 14.0 0.00 0.00 0.00 1 1014.2
20260504215241 58 285 8.0 14.0 0.00 0.00 0.00 2 1014.2
20260504215144 59 227 8.0 13.0 0.00 0.00 0.00 1 1014.2
20260504215140 59 240 8.0 14.0 0.00 0.00 0.00 1 1014.2
20260504214935 59 253 8.0 14.0 0.00 0.00 0.00 1 1014.2
20260504214835 59 224 8.0 14.0 0.00 0.00 0.00 1 1014.2
20260504214734 59 222 8.0 14.0 0.00 0.00 0.00 1 1014.2
20260504214629 58 315 8.0 14.0 0.00 0.00 0.00 1 1014.2
20260504214529 58 219 8.0 14.0 0.00 0.00 0.00 1 1014.3
20260504214429 59 269 9.0 14.0 0.00 0.00 0.00 1 1014.2
20260504214329 59 294 8.0 14.0 0.00 0.00 0.00 1 1014.2
20260504214229 59 239 8.0 14.0 0.00 0.00 0.00 1 1014.2
20260504214123 59 256 8.0 14.0 0.00 0.00 0.00 1 1014.2
20260504214022 59 273 8.0 14.0 0.00 0.00 0.00 1 1014.2
20260504213923 59 257 8.0 13.0 0.00 0.00 0.00 1 1014.2
20260504213823 58 268 9.0 14.0 0.00 0.00 0.00 1 1014.2
20260504213723 58 249 8.0 14.0 0.00 0.00 0.00 1 1014.1
20260504213617 58 278 8.0 14.0 0.00 0.00 0.00 1 1014.2
20260504213517 58 253 8.0 14.0 0.00 0.00 0.00 1 1014.2
20260504213417 58 217 8.0 14.0 0.00 0.00 0.00 1 1014.2
20260504213317 58 269 8.0 14.0 0.00 0.00 0.00 1 1014.2
20260504213217 58 187 8.0 14.0 0.00 0.00 0.00 1 1014.2
20260504213113 58 246 8.0 14.0 0.00 0.00 0.00 4 1014.2
20260504213011 58 209 8.0 14.0 0.00 0.00 0.00 6 1014.2
20260504212911 59 230 8.0 14.0 0.00 0.00 0.00 6 1014.1
20260504212811 59 243 8.0 14.0 0.00 0.00 0.00 1 1014.2
20260504212713 59 286 8.0 14.0 0.00 0.00 0.00 4 1014.2
20260504212709 59 250 8.0 14.0 0.00 0.00 0.00 5 1014.2
20260504212505 59 247 8.0 14.0 0.00 0.00 0.00 9 1014.2
20260504212405 59 257 8.0 14.0 0.00 0.00 0.00 11 1014.2
20260504212304 59 250 8.0 14.0 0.00 0.00 0.00 9 1014.2
20260504212203 59 205 8.0 14.0 0.00 0.00 0.00 6 1014.2
20260504212101 59 261 8.0 14.0 0.00 0.00 0.00 4 1014.2
20260504212001 59 245 8.0 14.0 0.00 0.00 0.00 6 1014.2
20260504211901 59 233 8.0 13.0 0.00 0.00 0.00 6 1014.2
20260504211801 59 255 8.0 13.0 0.00 0.00 0.00 6 1014.2
20260504211701 59 244 8.0 14.0 0.00 0.00 0.00 7 1014.2
20260504211609 59 228 9.0 14.0 0.00 0.00 0.00 10 1014.2
20260504211605 59 259 9.0 14.0 0.00 0.00 0.00 10 1014.2
20260504211401 59 259 9.0 14.0 0.00 0.00 0.00 11 1014.3
20260504211300 59 236 8.0 14.0 0.00 0.00 0.00 10 1014.2
20260504211201 59 254 9.0 14.0 0.00 0.00 0.00 9 1014.2
20260504211101 59 256 9.0 14.0 0.00 0.00 0.00 6 1014.2
20260504211001 59 257 8.0 14.0 0.00 0.00 0.00 6 1014.2
20260504210909 59 267 8.0 14.0 0.00 0.00 0.00 15 1014.3
20260504210905 59 233 8.0 14.0 0.00 0.00 0.00 12 1014.3
20260504210701 59 223 8.0 14.0 0.00 0.00 0.00 15 1014.3
20260504210601 59 232 8.0 14.0 0.00 0.00 0.00 14 1014.3
20260504210501 60 256 8.0 14.0 0.00 0.00 0.00 11 1014.3
20260504210355 59 237 8.0 14.0 0.00 0.00 0.00 9 1014.3
20260504210256 59 257 8.0 14.0 0.00 0.00 0.00 7 1014.4
20260504210154 59 246 8.0 14.0 0.00 0.00 0.00 9 1014.4
20260504210055 59 214 8.0 14.0 0.00 0.00 0.00 10 1014.4
20260504205954 59 296 8.0 14.0 0.00 0.00 0.00 11 1014.4
20260504205849 59 272 9.0 14.0 0.00 0.00 0.00 14 1014.4
20260504205806 59 256 9.0 14.0 0.00 0.00 0.00 17 1014.4
20260504205802 59 279 8.0 14.0 0.00 0.00 0.00 15 1014.4
20260504205757 59 242 9.0 14.0 0.00 0.00 0.00 13 1014.4
20260504205448 59 250 8.0 14.0 0.00 0.00 0.00 16 1014.4
20260504205347 59 244 8.0 14.0 0.00 0.00 0.00 15 1014.4
20260504205247 59 242 8.0 13.0 0.00 0.00 0.00 19 1014.4
20260504205147 59 302 8.0 13.0 0.00 0.00 0.00 21 1014.4
20260504205047 60 229 7.0 13.0 0.00 0.00 0.00 24 1014.4
20260504204947 60 263 8.0 14.0 0.00 0.00 0.00 23 1014.4
20260504204855 60 243 7.0 14.0 0.00 0.00 0.00 21 1014.3
20260504204851 60 271 7.0 14.0 0.00 0.00 0.00 22 1014.3
20260504204655 60 200 7.0 14.0 0.00 0.00 0.00 19 1014.3
20260504204651 60 214 7.0 14.0 0.00 0.00 0.00 19 1014.3
20260504204456 60 257 7.0 14.0 0.00 0.00 0.00 18 1014.3
20260504204452 60 217 7.0 14.0 0.00 0.00 0.00 19 1014.3
20260504204246 60 261 8.0 14.0 0.00 0.00 0.00 19 1014.4
20260504204146 60 279 8.0 14.0 0.00 0.00 0.00 18 1014.3
20260504204047 60 243 8.0 14.0 0.00 0.00 0.00 18 1014.4
20260504203947 60 269 8.0 14.0 0.00 0.00 0.00 20 1014.4
20260504203847 60 271 8.0 14.0 0.00 0.00 0.00 23 1014.4
20260504203748 60 253 7.0 14.0 0.00 0.00 0.00 25 1014.4
20260504203644 60 219 7.0 14.0 0.00 0.00 0.00 25 1014.4
20260504203545 60 284 7.0 14.0 0.00 0.00 0.00 28 1014.3
20260504203445 60 256 7.0 14.0 0.00 0.00 0.00 29 1014.3
20260504203345 60 240 7.0 14.0 0.00 0.00 0.00 30 1014.3
20260504203245 60 225 6.0 14.0 0.00 0.00 0.00 30 1014.3
20260504203145 60 276 6.0 14.0 0.00 0.00 0.00 34 1014.3
20260504203044 60 279 6.0 14.0 0.00 0.00 0.00 33 1014.3
20260504202944 60 228 6.0 12.0 0.00 0.00 0.00 34 1014.4
20260504202846 60 290 6.0 12.0 0.00 0.00 0.00 31 1014.3
20260504202744 60 274 6.0 12.0 0.00 0.00 0.00 33 1014.3
20260504202644 60 259 6.0 12.0 0.00 0.00 0.00 29 1014.3
20260504202545 60 350 7.0 12.0 0.00 0.00 0.00 26 1014.2
20260504202439 60 249 7.0 14.0 0.00 0.00 0.00 25 1014.3
20260504202355 60 284 8.0 15.0 0.00 0.00 0.00 29 1014.1
20260504202351 60 254 9.0 15.0 0.00 0.00 0.00 28 1014.1
20260504202347 60 226 8.0 15.0 0.00 0.00 0.00 29 1014.2
20260504202039 60 236 9.0 15.0 0.00 0.00 0.00 30 1014.2
20260504201947 60 279 9.0 15.0 0.00 0.00 0.00 33 1014.2
20260504201943 60 232 9.0 15.0 0.00 0.00 0.00 29 1014.1
20260504201739 60 261 9.0 15.0 0.00 0.00 0.00 34 1014.2
20260504201638 60 269 9.0 15.0 0.00 0.00 0.00 34 1014.2
20260504201540 60 287 9.0 15.0 0.00 0.00 0.00 37 1014.2
20260504201439 60 238 8.0 15.0 0.00 0.00 0.00 34 1014.2
20260504201339 60 240 8.0 15.0 0.00 0.00 0.00 36 1014.2
20260504201239 60 289 8.0 15.0 0.00 0.00 0.00 31 1014.2
20260504201138 60 234 8.0 15.0 0.00 0.00 0.00 28 1014.2
20260504201039 60 257 8.0 15.0 0.00 0.00 0.00 24 1014.3
20260504200946 60 261 8.0 15.0 0.00 0.00 0.00 26 1014.3
20260504200942 60 218 8.0 15.0 0.00 0.00 0.00 26 1014.3
20260504200748 60 214 9.0 13.0 0.00 0.00 0.00 20 1014.3
20260504200744 60 249 8.0 15.0 0.00 0.00 0.00 19 1014.3
20260504200539 60 255 9.0 13.0 0.00 0.00 0.00 24 1014.3
20260504200439 60 269 9.0 13.0 0.00 0.00 0.00 24 1014.3
20260504200339 60 264 9.0 13.0 0.00 0.00 0.00 21 1014.3
20260504200238 60 237 9.0 14.0 0.00 0.00 0.00 20 1014.3
20260504200139 60 242 9.0 14.0 0.00 0.00 0.00 16 1014.3
20260504200037 60 248 9.0 15.0 0.00 0.00 0.00 19 1014.4
20260504195937 60 252 9.0 15.0 0.00 0.00 0.00 19 1014.3
20260504195837 60 292 9.0 16.0 0.00 0.00 0.00 21 1014.3
20260504195737 60 221 9.0 16.0 0.00 0.00 0.00 18 1014.3
20260504195637 60 265 10.0 16.0 0.00 0.00 0.00 1 1014.3
20260504195537 59 281 10.0 16.0 0.00 0.00 0.00 1 1014.3
20260504195437 59 236 10.0 16.0 0.00 0.00 0.00 7 1014.3
20260504195337 59 222 10.0 16.0 0.00 0.00 0.00 5 1014.3
20260504195237 59 252 10.0 16.0 0.00 0.00 0.00 1 1014.3
20260504195149 59 217 10.0 16.0 0.00 0.00 0.00 1 1014.3
20260504195041 59 234 10.0 16.0 0.00 0.00 0.00 1 1014.3
20260504194845 59 232 10.0 15.0 0.00 0.00 0.00 2 1014.4
20260504194841 59 249 10.0 15.0 0.00 0.00 0.00 1 1014.4
20260504194636 58 321 10.0 15.0 0.00 0.00 0.00 4 1014.4
20260504194537 58 242 10.0 15.0 0.00 0.00 0.00 3 1014.5
20260504194437 58 285 10.0 15.0 0.00 0.00 0.00 3 1014.4
20260504194337 58 239 10.0 15.0 0.00 0.00 0.00 1 1014.5
20260504194237 59 263 10.0 14.0 0.00 0.00 0.00 1 1014.5
20260504194132 58 247 10.0 14.0 0.00 0.00 0.00 1 1014.5
20260504194032 58 281 9.0 14.0 0.00 0.00 0.00 1 1014.5
20260504193933 58 247 9.0 14.0 0.00 0.00 0.00 1 1014.5
20260504193833 58 275 9.0 14.0 0.00 0.00 0.00 1 1014.5
20260504193733 58 235 10.0 14.0 0.00 0.00 0.00 1 1014.4
20260504193633 58 237 10.0 15.0 0.00 0.00 0.00 1 1014.4
20260504193532 58 227 10.0 15.0 0.00 0.00 0.00 1 1014.4
20260504193432 58 229 10.0 15.0 0.00 0.00 0.00 1 1014.4
20260504193333 58 265 10.0 15.0 0.00 0.00 0.00 1 1014.3
20260504193233 58 225 10.0 15.0 0.00 0.00 0.00 1 1014.3
20260504193133 58 231 10.0 15.0 0.00 0.00 0.00 1 1014.3
20260504193033 58 257 10.0 15.0 0.00 0.00 0.00 1 1014.3
20260504192932 58 237 11.0 15.0 0.00 0.00 0.00 1 1014.3
20260504192833 58 240 11.0 15.0 0.00 0.00 0.00 1 1014.3
20260504192742 58 215 11.0 16.0 0.00 0.00 0.00 1 1014.3
20260504192737 58 219 11.0 16.0 0.00 0.00 0.00 1 1014.3
20260504192542 58 217 11.0 16.0 0.00 0.00 0.00 1 1014.3
20260504192538 58 256 11.0 16.0 0.00 0.00 0.00 1 1014.3
20260504192338 58 264 11.0 16.0 0.00 0.00 0.00 1 1014.4
20260504192333 58 249 11.0 16.0 0.00 0.00 0.00 1 1014.4
20260504192129 58 269 11.0 16.0 0.00 0.00 0.00 1 1014.4
20260504192029 58 264 11.0 16.0 0.00 0.00 0.00 1 1014.4
20260504191929 58 223 11.0 17.0 0.00 0.00 0.00 1 1014.5
20260504191829 58 254 11.0 17.0 0.00 0.00 0.00 1 1014.5
20260504191729 58 236 11.0 17.0 0.00 0.00 0.00 1 1014.5
20260504191629 58 248 11.0 17.0 0.00 0.00 0.00 1 1014.5
20260504191528 58 255 11.0 17.0 0.00 0.00 0.00 1 1014.5
20260504191428 58 246 11.0 17.0 0.00 0.00 0.00 1 1014.5
20260504191328 58 230 11.0 17.0 0.00 0.00 0.00 1 1014.5
20260504191229 58 246 11.0 17.0 0.00 0.00 0.00 1 1014.5
20260504191129 58 246 11.0 17.0 0.00 0.00 0.00 1 1014.5
20260504191029 58 282 11.0 17.0 0.00 0.00 0.00 1 1014.5
20260504190928 58 225 11.0 16.0 0.00 0.00 0.00 1 1014.5
20260504190828 58 263 10.0 16.0 0.00 0.00 0.00 1 1014.6
20260504190728 58 233 10.0 15.0 0.00 0.00 0.00 1 1014.5
20260504190629 58 224 10.0 15.0 0.00 0.00 0.00 1 1014.6
20260504190529 58 240 10.0 15.0 0.00 0.00 0.00 1 1014.6
20260504190429 58 236 10.0 15.0 0.00 0.00 0.00 1 1014.6
20260504190324 58 252 10.0 15.0 0.00 0.00 0.00 1 1014.5
20260504190225 58 292 10.0 15.0 0.00 0.00 0.00 1 1014.5
20260504190125 58 226 10.0 15.0 0.00 0.00 0.00 1 1014.6
20260504190024 58 257 10.0 15.0 0.00 0.00 0.00 1 1014.5
20260504185925 58 253 10.0 15.0 0.00 0.00 0.00 1 1014.5
20260504185824 58 242 10.0 15.0 0.00 0.00 0.00 1 1014.5
20260504185725 58 236 9.0 15.0 0.00 0.00 0.00 1 1014.5
20260504185625 58 227 9.0 14.0 0.00 0.00 0.00 1 1014.5
20260504185525 58 240 8.0 14.0 0.00 0.00 0.00 1 1014.5
20260504185424 58 229 8.0 14.0 0.00 0.00 0.00 1 1014.5
20260504185324 58 231 8.0 14.0 0.00 0.00 0.00 1 1014.5
20260504185224 58 256 8.0 14.0 0.00 0.00 0.00 1 1014.5
20260504185119 59 253 8.0 15.0 0.00 0.00 0.00 1 1014.6
20260504185018 59 225 8.0 15.0 0.00 0.00 0.00 1 1014.6
20260504184919 59 234 8.0 15.0 0.00 0.00 0.00 1 1014.6
20260504184819 59 230 9.0 15.0 0.00 0.00 0.00 1 1014.6
20260504184718 59 257 9.0 15.0 0.00 0.00 0.00 1 1014.5
20260504184611 59 239 9.0 15.0 0.00 0.00 0.00 1 1014.6
20260504184511 58 259 9.0 15.0 0.00 0.00 0.00 1 1014.5
20260504184410 58 264 9.0 15.0 0.00 0.00 0.00 1 1014.5
20260504184310 58 228 9.0 15.0 0.00 0.00 0.00 1 1014.6
20260504184210 58 228 9.0 15.0 0.00 0.00 0.00 1 1014.5
20260504184104 58 239 9.0 15.0 0.00 0.00 0.00 1 1014.6
20260504184004 58 262 9.0 15.0 0.00 0.00 0.00 1 1014.6
20260504183905 58 265 9.0 16.0 0.00 0.00 0.00 1 1014.6
20260504183805 58 239 9.0 16.0 0.00 0.00 0.00 1 1014.5
20260504183705 58 246 9.0 16.0 0.00 0.00 0.00 1 1014.6
20260504183603 58 246 9.0 16.0 0.00 0.00 0.00 1 1014.6
20260504183503 59 232 9.0 16.0 0.00 0.00 0.00 1 1014.4
20260504183403 59 227 9.0 16.0 0.00 0.00 0.00 1 1014.5
20260504183301 59 278 10.0 16.0 0.00 0.00 0.00 1 1014.5
20260504183200 59 264 9.0 16.0 0.00 0.00 0.00 1 1014.5
20260504183100 59 291 9.0 16.0 0.00 0.00 0.00 1 1014.4
20260504182959 59 271 9.0 16.0 0.00 0.00 0.00 1 1014.4
20260504182859 59 252 9.0 15.0 0.00 0.00 0.00 1 1014.4
20260504182759 59 200 9.0 15.0 0.00 0.00 0.00 1 1014.4
20260504182659 59 249 9.0 15.0 0.00 0.00 0.00 1 1014.4
20260504182559 59 257 9.0 15.0 0.00 0.00 0.00 1 1014.4
20260504182458 59 279 9.0 15.0 0.00 0.00 0.00 1 1014.4
20260504182358 59 252 9.0 15.0 0.00 0.00 0.00 1 1014.4
20260504182258 59 265 9.0 15.0 0.00 0.00 0.00 1 1014.4
20260504182158 59 259 9.0 15.0 0.00 0.00 0.00 1 1014.4
20260504182058 58 256 9.0 15.0 0.00 0.00 0.00 1 1014.3
20260504181958 59 285 9.0 15.0 0.00 0.00 0.00 1 1014.4
20260504181852 58 255 8.0 15.0 0.00 0.00 0.00 1 1014.3
20260504181752 58 271 8.0 15.0 0.00 0.00 0.00 1 1014.4
20260504181700 59 230 7.0 15.0 0.00 0.00 0.00 1 1014.4
20260504181657 59 250 7.0 15.0 0.00 0.00 0.00 1 1014.4
20260504181452 59 271 7.0 15.0 0.00 0.00 0.00 1 1014.4
20260504181347 59 268 7.0 15.0 0.00 0.00 0.00 1 1014.4
20260504181246 58 274 7.0 12.0 0.00 0.00 0.00 1 1014.4
20260504181146 58 265 7.0 12.0 0.00 0.00 0.00 1 1014.4
20260504181046 58 280 8.0 14.0 0.00 0.00 0.00 1 1014.4
20260504180946 58 265 8.0 14.0 0.00 0.00 0.00 1 1014.4
20260504180840 58 269 8.0 14.0 0.00 0.00 0.00 1 1014.4
20260504180740 58 241 9.0 17.0 0.00 0.00 0.00 1 1014.4
20260504180640 58 279 9.0 17.0 0.00 0.00 0.00 1 1014.4
20260504180540 58 215 9.0 17.0 0.00 0.00 0.00 1 1014.4
20260504180440 58 250 10.0 17.0 0.00 0.00 0.00 1 1014.4
20260504180333 58 223 10.0 17.0 0.00 0.00 0.00 1 1014.4
20260504180241 58 243 10.0 17.0 0.00 0.00 0.00 1 1014.4
20260504180237 58 267 11.0 17.0 0.00 0.00 0.00 1 1014.4
20260504180041 58 254 10.0 17.0 0.00 0.00 0.00 1 1014.3
20260504180036 58 291 10.0 17.0 0.00 0.00 0.00 1 1014.4
20260504175827 58 244 10.0 17.0 0.00 0.00 0.00 1 1014.3
20260504175726 59 254 10.0 16.0 0.00 0.00 0.00 1 1014.2
20260504175626 59 234 9.0 16.0 0.00 0.00 0.00 1 1014.2
20260504175534 59 224 9.0 16.0 0.00 0.00 0.00 1 1014.2
20260504175529 59 217 9.0 16.0 0.00 0.00 0.00 1 1014.3
20260504175319 59 225 9.0 16.0 0.00 0.00 0.00 1 1014.2
20260504175218 60 223 8.0 16.0 0.00 0.00 0.00 1 1014.2
20260504175118 60 284 8.0 13.0 0.00 0.00 0.00 1 1014.2
20260504175026 59 212 8.0 13.0 0.00 0.00 0.00 1 1014.2
20260504175022 59 233 8.0 13.0 0.00 0.00 0.00 1 1014.2
20260504174825 59 223 8.0 13.0 0.00 0.00 0.00 1 1014.2
20260504174820 59 225 8.0 13.0 0.00 0.00 0.00 1 1014.2
20260504174617 59 228 8.0 13.0 0.00 0.00 0.00 1 1014.2
20260504174517 58 215 9.0 13.0 0.00 0.00 0.00 1 1014.1
20260504174416 58 290 8.0 13.0 0.00 0.00 0.00 1 1014.1
20260504174316 58 240 8.0 13.0 0.00 0.00 0.00 1 1014.1
20260504174216 58 188 8.0 12.0 0.00 0.00 0.00 1 1014.1
20260504174125 59 212 8.0 12.0 0.00 0.00 0.00 1 1014.1
20260504174121 59 214 8.0 12.0 0.00 0.00 0.00 1 1014.1
20260504173914 59 180 8.0 12.0 0.00 0.00 0.00 1 1014.1
20260504173814 59 198 7.0 12.0 0.00 0.00 0.00 1 1014.1
20260504173713 59 265 7.0 12.0 0.00 0.00 0.00 1 1014.1
20260504173613 59 228 7.0 12.0 0.00 0.00 0.00 1 1014.1
20260504173512 59 234 7.0 12.0 0.00 0.00 0.00 1 1014.1
20260504173412 59 248 7.0 12.0 0.00 0.00 0.00 1 1014.1
20260504173312 59 273 7.0 12.0 0.00 0.00 0.00 1 1014.1
20260504173212 59 257 7.0 13.0 0.00 0.00 0.00 1 1014.1
20260504173107 58 210 7.0 13.0 0.00 0.00 0.00 1 1014.1
20260504173006 58 194 7.0 13.0 0.00 0.00 0.00 1 1014.1
20260504172906 58 215 8.0 13.0 0.00 0.00 0.00 1 1014.1
20260504172806 58 234 8.0 13.0 0.00 0.00 0.00 1 1014.1
20260504172705 58 250 8.0 13.0 0.00 0.00 0.00 1 1014.1
20260504172558 58 247 8.0 13.0 0.00 0.00 0.00 1 1014.1
20260504172458 58 257 8.0 13.0 0.00 0.00 0.00 1 1014.0
20260504172358 58 221 8.0 13.0 0.00 0.00 0.00 1 1014.0
20260504172259 58 265 7.0 13.0 0.00 0.00 0.00 1 1014.0
20260504172158 58 244 7.0 13.0 0.00 0.00 0.00 3 1014.0
20260504172052 58 227 7.0 13.0 0.00 0.00 0.00 5 1014.0
20260504171952 59 223 7.0 13.0 0.00 0.00 0.00 2 1014.0
20260504171853 59 232 7.0 13.0 0.00 0.00 0.00 1 1013.9
20260504171753 58 230 7.0 12.0 0.00 0.00 0.00 2 1013.9
20260504171652 58 203 7.0 12.0 0.00 0.00 0.00 3 1013.9
20260504171555 58 295 7.0 13.0 0.00 0.00 0.00 6 1013.8
20260504171550 58 248 7.0 12.0 0.00 0.00 0.00 5 1013.9
20260504171346 58 184 7.0 13.0 0.00 0.00 0.00 8 1013.8
20260504171247 58 214 7.0 13.0 0.00 0.00 0.00 8 1013.8
20260504171146 59 216 7.0 13.0 0.00 0.00 0.00 8 1013.8
20260504171040 59 231 7.0 13.0 0.00 0.00 0.00 5 1013.8
20260504170940 59 202 7.0 13.0 0.00 0.00 0.00 8 1013.7
20260504170840 59 198 7.0 13.0 0.00 0.00 0.00 11 1013.7
20260504170740 59 207 7.0 13.0 0.00 0.00 0.00 12 1013.7
20260504170640 59 250 6.0 13.0 0.00 0.00 0.00 10 1013.7
20260504170534 59 234 6.0 13.0 0.00 0.00 0.00 9 1013.7
20260504170434 59 219 6.0 12.0 0.00 0.00 0.00 8 1013.7
20260504170335 59 194 6.0 12.0 0.00 0.00 0.00 6 1013.7
20260504170235 59 221 6.0 12.0 0.00 0.00 0.00 4 1013.6
20260504170133 59 215 6.0 12.0 0.00 0.00 0.00 3 1013.7
20260504160422 56 242 5.0 8.0 0.00 0.00 0.00 1 1013.9
20260504160322 56 205 5.0 8.0 0.00 0.00 0.00 1 1013.9
20260504160222 56 262 5.0 8.0 0.00 0.00 0.00 1 1013.9
20260504160122 56 252 5.0 8.0 0.00 0.00 0.00 1 1013.9
20260504151136 56 201 4.0 8.0 0.00 0.00 0.00 1 1013.7
20260504151036 56 226 5.0 8.0 0.00 0.00 0.00 1 1013.7
20260504150936 56 265 5.0 8.0 0.00 0.00 0.00 1 1013.7
20260504150836 56 249 4.0 8.0 0.00 0.00 0.00 1 1013.7
20260504150736 56 242 4.0 8.0 0.00 0.00 0.00 1 1013.7
20260504150629 55 254 4.0 8.0 0.00 0.00 0.00 1 1013.7
20260504150531 55 221 4.0 8.0 0.00 0.00 0.00 1 1013.6
20260504150430 55 240 3.0 8.0 0.00 0.00 0.00 1 1013.6
20260504150330 55 248 3.0 8.0 0.00 0.00 0.00 1 1013.6
20260504150230 55 225 3.0 6.0 0.00 0.00 0.00 1 1013.6
20260504150124 55 227 3.0 6.0 0.00 0.00 0.00 1 1013.6
20260504141303 54 229 2.0 4.0 0.00 0.00 0.00 1 1013.5
20260504141258 54 232 2.0 4.0 0.00 0.00 0.00 1 1013.5
20260504141254 54 229 2.0 4.0 0.00 0.00 0.00 1 1013.6
20260504140946 54 231 2.0 4.0 0.00 0.00 0.00 1 1013.5
20260504140844 54 231 2.0 4.0 0.00 0.00 0.00 1 1013.5
20260504140744 54 234 2.0 4.0 0.00 0.00 0.00 1 1013.5
20260504140644 54 236 2.0 3.0 0.00 0.00 0.00 1 1013.5
20260504140544 54 237 2.0 3.0 0.00 0.00 0.00 1 1013.5
20260504140505 54 242 2.0 3.0 0.00 0.00 0.00 1 1013.5
20260504140501 54 237 2.0 3.0 0.00 0.00 0.00 1 1013.5
20260504140248 54 242 2.0 3.0 0.00 0.00 0.00 1 1013.5
20260504130818 54 231 2.0 5.0 0.00 0.00 0.00 1 1013.2
20260504130718 54 230 2.0 5.0 0.00 0.00 0.00 1 1013.2
20260504130618 54 230 2.0 5.0 0.00 0.00 0.00 1 1013.2
20260504130517 54 244 2.0 4.0 0.00 0.00 0.00 1 1013.2
20260504130417 54 246 2.0 4.0 0.00 0.00 0.00 1 1013.1
20260504130326 54 248 2.0 4.0 0.00 0.00 0.00 1 1013.2
20260504130322 54 248 2.0 4.0 0.00 0.00 0.00 1 1013.1
20260504130118 54 247 2.0 4.0 0.00 0.00 0.00 1 1013.2
20260504120306 54 240 2.0 4.0 0.00 0.00 0.00 1 1013.0
20260504120206 54 240 2.0 4.0 0.00 0.00 0.00 1 1013.0
20260504120106 54 240 2.0 4.0 0.00 0.00 0.00 1 1013.0
20260504110649 54 257 2.0 6.0 0.00 0.00 0.00 1 1012.9
20260504110547 54 225 3.0 6.0 0.00 0.00 0.00 1 1012.9
20260504110441 54 225 3.0 6.0 0.00 0.00 0.00 1 1013.0
20260504110341 54 225 3.0 6.0 0.00 0.00 0.00 1 1012.9
20260504110241 54 225 3.0 6.0 0.00 0.00 0.00 1 1012.9
20260504110150 54 257 3.0 6.0 0.00 0.00 0.00 1 1012.9
20260504110145 54 225 3.0 6.0 0.00 0.00 0.00 1 1013.0
20260504100543 54 247 3.0 5.0 0.00 0.00 0.00 1 1012.8
20260504100539 54 247 3.0 5.0 0.00 0.00 0.00 1 1012.9
20260504100329 54 269 3.0 5.0 0.00 0.00 0.00 1 1012.8
20260504100229 54 270 3.0 5.0 0.00 0.00 0.00 1 1012.9
20260504100129 54 271 3.0 5.0 0.00 0.00 0.00 1 1012.9